Dyersburg, TN

11:57 PM CDT on October 16, 2017 (GMT -0500)
Dyersburg Municipal

Weather History for KDYR - June, 2012

Change the Weather History Date:

Thursday, June 7, 2012

  Actual Average Record
Temperature  
Mean Temperature 70 °F -  
Max Temperature 80 °F 81 °F 98 °F (2011)
Min Temperature 59 °F 64 °F 48 °F (2011)
Cooling Degree Days 4    
Growing Degree Days 20 (Base 50)    
Moisture  
Dew Point 51 °F    
Average Humidity 50    
Maximum Humidity 67    
Minimum Humidity 34    
Precipitation  
Precipitation 0.00 in - - ()
Sea Level Pressure  
Sea Level Pressure 30.05 in    
Wind  
Wind Speed 5 mph (NE)    
Max Wind Speed 16 mph    
Max Gust Speed 17 mph    
Visibility 10 miles    
Events      
Averages and records for this station are not official NWS values.
T = Trace of Precipitation, MM = Missing Value Source: NWS Daily Summary

Daily Weather History Graph

Daily Weather History Graph

Search for Another Location

Airport or City:

Trip Planner

Search our weather history database for the weather conditions in past years. The results will help you decide how hot, cold, wet, or windy it might be!

Date:

Astronomy

Jun. 07, 2012 Rise Set
Actual Time 5:40 AM CDT 8:12 PM CDT
Civil Twilight 5:10 AM CDT 8:42 PM CDT
Nautical Twilight 4:33 AM CDT 9:20 PM CDT
Astronomical Twilight 3:52 AM CDT 10:01 PM CDT
Moon 11:08 PM CDT (6/7) 9:08 AM CDT (6/7)
Length of Visible Light 15h 32m
Length of Day
14h 32m
Waning Gibbous, 86% of the Moon is Illuminated
Jun 7
Waning Gibbous
Jun 11
Last Quarter
Jun 19
New
Jun 26
First Quarter
Jul 3
Full

Hourly Weather History & Observations

Time (CDT) Temp. Dew Point Humidity Pressure Visibility Wind Dir Wind Speed Gust Speed Precip Events Conditions
12:15 AM 64.4 °F 48.2 °F 56% 30.04 in 10.0 mi Calm Calm - N/A   Clear
12:35 AM 64.4 °F 48.2 °F 56% 30.03 in 10.0 mi NE 3.5 mph - N/A   Clear
12:55 AM 62.6 °F 48.2 °F 59% 30.03 in 10.0 mi NE 3.5 mph - N/A   Clear
1:15 AM 62.6 °F 48.2 °F 59% 30.04 in 10.0 mi Calm Calm - N/A   Clear
1:35 AM 62.6 °F 48.2 °F 59% 30.03 in 10.0 mi NE 3.5 mph - N/A   Clear
2:15 AM 60.8 °F 48.2 °F 63% 30.03 in 10.0 mi NE 3.5 mph - N/A   Clear
2:35 AM 60.8 °F 48.2 °F 63% 30.03 in 10.0 mi Calm Calm - N/A   Clear
2:55 AM 60.8 °F 48.2 °F 63% 30.03 in 10.0 mi NNE 4.6 mph - N/A   Clear
3:15 AM 60.8 °F 48.2 °F 63% 30.03 in 10.0 mi NE 4.6 mph - N/A   Clear
3:35 AM 60.8 °F 48.2 °F 63% 30.03 in 10.0 mi NE 4.6 mph - N/A   Clear
3:55 AM 60.8 °F 48.2 °F 63% 30.03 in 10.0 mi NE 5.8 mph - N/A   Clear
4:15 AM 60.8 °F 48.2 °F 63% 30.04 in 10.0 mi NE 5.8 mph - N/A   Clear
4:55 AM 60.8 °F 48.2 °F 63% 30.05 in 10.0 mi NE 4.6 mph - N/A   Clear
5:15 AM 59.0 °F 48.2 °F 67% 30.06 in 10.0 mi NE 4.6 mph - N/A   Clear
5:35 AM 59.0 °F 48.2 °F 67% 30.06 in 10.0 mi NE 4.6 mph - N/A   Clear
5:55 AM 59.0 °F 48.2 °F 67% 30.06 in 10.0 mi ENE 4.6 mph - N/A   Clear
6:15 AM 59.0 °F 48.2 °F 67% 30.06 in 10.0 mi NE 5.8 mph - N/A   Clear
6:35 AM 60.8 °F 48.2 °F 63% 30.06 in 10.0 mi NE 6.9 mph - N/A   Clear
6:55 AM 60.8 °F 48.2 °F 63% 30.06 in 10.0 mi NE 6.9 mph - N/A   Clear
7:15 AM 62.6 °F 48.2 °F 59% 30.07 in 10.0 mi NE 6.9 mph - N/A   Clear
7:35 AM - - N/A% 30.06 in 10.0 mi NE 8.1 mph - N/A   Clear
7:55 AM - - N/A% 30.07 in 10.0 mi ENE 6.9 mph - N/A   Clear
8:15 AM - - N/A% 30.07 in 10.0 mi ENE 6.9 mph - N/A   Clear
8:35 AM 68.0 °F 51.8 °F 56% 30.08 in 10.0 mi ENE 6.9 mph - N/A   Clear
8:55 AM 69.8 °F 51.8 °F 53% 30.09 in 10.0 mi ENE 6.9 mph - N/A   Clear
9:35 AM 71.6 °F 51.8 °F 50% 30.08 in 10.0 mi ENE 8.1 mph - N/A   Clear
9:55 AM 73.4 °F 51.8 °F 47% 30.08 in 10.0 mi East 6.9 mph - N/A   Clear
10:15 AM 73.4 °F 51.8 °F 47% 30.08 in 10.0 mi NE 9.2 mph - N/A   Clear
10:35 AM 73.4 °F 51.8 °F 47% 30.08 in 10.0 mi East 10.4 mph - N/A   Clear
10:55 AM 75.2 °F 51.8 °F 44% 30.07 in 10.0 mi NE 15.0 mph - N/A   Clear
11:15 AM 75.2 °F 51.8 °F 44% 30.07 in 10.0 mi ENE 6.9 mph - N/A   Partly Cloudy
11:35 AM 75.2 °F 51.8 °F 44% 30.07 in 10.0 mi East 10.4 mph 16.1 mph N/A   Partly Cloudy
11:55 AM 77.0 °F 51.8 °F 41% 30.07 in 10.0 mi East 6.9 mph - N/A   Scattered Clouds
12:15 PM 78.8 °F 51.8 °F 39% 30.07 in 10.0 mi NE 11.5 mph - N/A   Partly Cloudy
12:35 PM 78.8 °F 51.8 °F 39% 30.07 in 10.0 mi NE 9.2 mph - N/A   Clear
12:55 PM 78.8 °F 51.8 °F 39% 30.07 in 10.0 mi ENE 6.9 mph - N/A   Partly Cloudy
1:15 PM 78.8 °F 51.8 °F 39% 30.07 in 10.0 mi NNE 9.2 mph - N/A   Partly Cloudy
1:35 PM 78.8 °F 51.8 °F 39% 30.07 in 10.0 mi NE 11.5 mph - N/A   Clear
1:55 PM 78.8 °F 51.8 °F 39% 30.06 in 10.0 mi ENE 8.1 mph 17.3 mph N/A   Clear
2:15 PM 80.6 °F 51.8 °F 37% 30.06 in 10.0 mi NNE 10.4 mph - N/A   Clear
2:35 PM 80.6 °F 51.8 °F 37% 30.05 in 10.0 mi NNE 10.4 mph 17.3 mph N/A   Clear
2:55 PM 80.6 °F 51.8 °F 37% 30.05 in 10.0 mi NNE 10.4 mph - N/A   Clear
3:15 PM 80.6 °F 51.8 °F 37% 30.04 in 10.0 mi East 5.8 mph - N/A   Partly Cloudy
3:35 PM 80.6 °F 51.8 °F 37% 30.04 in 10.0 mi East 8.1 mph - N/A   Clear
3:55 PM 80.6 °F 51.8 °F 37% 30.03 in 10.0 mi East 9.2 mph - N/A   Clear
4:15 PM 80.6 °F 51.8 °F 37% 30.02 in 10.0 mi ENE 8.1 mph - N/A   Partly Cloudy
4:35 PM 80.6 °F 51.8 °F 37% 30.02 in 10.0 mi NE 15.0 mph - N/A   Partly Cloudy
4:55 PM 80.6 °F 51.8 °F 37% 30.02 in 10.0 mi NE 11.5 mph - N/A   Clear
5:15 PM 80.6 °F 50.0 °F 34% 30.02 in 10.0 mi NE 11.5 mph - N/A   Clear
5:35 PM 78.8 °F 50.0 °F 36% 30.01 in 10.0 mi NE 12.7 mph - N/A   Clear
5:55 PM 78.8 °F 50.0 °F 36% 30.02 in 10.0 mi NE 10.4 mph - N/A   Clear
6:15 PM 78.8 °F 51.8 °F 39% 30.02 in 10.0 mi NNE 16.1 mph - N/A   Clear
6:35 PM 77.0 °F 51.8 °F 41% 30.03 in 10.0 mi NE 10.4 mph - N/A   Clear
6:55 PM 77.0 °F 51.8 °F 41% 30.03 in 10.0 mi NE 11.5 mph - N/A   Clear
7:15 PM 75.2 °F 50.0 °F 41% 30.03 in 10.0 mi NE 9.2 mph - N/A   Clear
7:35 PM 75.2 °F 50.0 °F 41% 30.04 in 10.0 mi ENE 5.8 mph - N/A   Clear
7:55 PM 73.4 °F 51.8 °F 47% 30.04 in 10.0 mi ENE 4.6 mph - N/A   Clear
8:15 PM 73.4 °F 51.8 °F 47% 30.04 in 10.0 mi Calm Calm - N/A   Clear
8:35 PM 71.6 °F 51.8 °F 50% 30.03 in 10.0 mi Calm Calm - N/A   Clear
8:55 PM 71.6 °F 51.8 °F 50% 30.04 in 10.0 mi Calm Calm - N/A   Clear
9:15 PM 68.0 °F 53.6 °F 60% 30.04 in 10.0 mi Calm Calm - N/A   Clear
9:35 PM 69.8 °F 51.8 °F 53% 30.05 in 10.0 mi Calm Calm - N/A   Clear
9:55 PM 66.2 °F 51.8 °F 60% 30.05 in 10.0 mi Calm Calm - N/A   Clear
10:15 PM 68.0 °F 51.8 °F 56% 30.05 in 10.0 mi Calm Calm - N/A   Clear
10:35 PM 66.2 °F 51.8 °F 60% 30.05 in 10.0 mi NNE 3.5 mph - N/A   Clear
10:55 PM 66.2 °F 51.8 °F 60% 30.05 in 10.0 mi Calm Calm - N/A   Clear
11:15 PM - - N/A% 30.05 in 10.0 mi NNE 3.5 mph - N/A   Clear
11:35 PM - - N/A% 30.05 in 10.0 mi Calm Calm - N/A   Clear
11:55 PM - - N/A% 30.05 in 10.0 mi Calm Calm - N/A   Clear